カタログに戻る

STARLINK-32295

運用中通信VLEO
NORAD 62147·PAYLOAD·🇺🇸 United States

打ち上げ Nov 30, 2024 から Cape Canaveral Space Force Station

Loading…

次のパス (今後24時間)

TLE

最新Source: CelesTrak SupGP

元期: Sep 15, 2026, 02:47 UTC

1 62147C 24224J   26258.11645833 -.00004156  00000+0 -15056-3 0  2583
2 62147  43.0010 168.5738 0001369 275.3964 222.6023 15.27572028    10

AllMySatでSTARLINK-32295をリアルタイム追跡

Download on the App Store